Location: Voyageurs National Park
(48.5020°N, 92.9292°W)
Time: 10:55:07
(UTC-05:00)

Shenzhou-11 Module - Pass Details

Date: 19 January 2018
Orbit: 352 x 355 km, 42.8° (Epoch: 19 May)

Event Time Altitude Azimuth Distance (km) Brightness Sun altitude
Exits shadow 06:08:00 19° 202° (SSW) 916 3.8 -17.4°
Maximum altitude 06:09:01 23° 170° (S) 802 3.9 -17.2°
Drops below altitude 10° 06:11:29 10° 115° (ESE) 1,325 6.0 -16.8°
Sets 06:13:44 0° 100° (E) 2,167 7.7 -16.5°
